Weather History for Cork, Ireland

Change the Weather History Date:

Thursday, October 24, 2013

  Actual Average Record
Temperature  
Mean Temperature 52 °F -  
Max Temperature 57 °F 51 °F 59 °F (1998)
Min Temperature 46 °F 41 °F 35 °F (2003)
Degree Days  
Heating Degree Days 14    
Growing Degree Days 2 (Base 50)    
Moisture  
Dew Point 55 °F    
Average Humidity 99    
Maximum Humidity 100    
Minimum Humidity 94    
Precipitation  
Precipitation 0.31 in 0.15 in - ()
Sea Level Pressure  
Sea Level Pressure 29.66 in    
Wind  
Wind Speed 10 mph ()    
Max Wind Speed 25 mph    
Max Gust Speed 36 mph    
Visibility 3.8 miles    
Events Fog , Rain    
Averages and records for this station are not official NWS values.
T = Trace of Precipitation, MM = Missing Value Source: Averaged Metar Reports

Daily Weather History Graph

Daily Weather History Graph

Search for Another Location

Airport:

Trip Planner

Search our weather history database for the weather conditions in past years. The results will help you decide how hot, cold, wet, or windy it might be!

Date:

Astronomy

Oct. 24, 2013 Rise Set
Actual Time 8:14 AM IST 6:21 PM IST
Civil Twilight 7:39 AM IST 6:55 PM IST
Nautical Twilight 7:00 AM IST 7:34 PM IST
Astronomical Twilight 6:21 AM IST 8:13 PM IST
Moon 10:16 PM IST (10/24) 1:23 PM IST (10/24)
Length of Visible Light 11h 16m
Length of Day
10h 06m
Waning Gibbous, 73% of the Moon is Illuminated
Oct 24
Waning Gibbous
Oct 27
Last Quarter
Nov 3
New
Nov 10
First Quarter
Nov 17
Full

Hourly Weather History & Observations

Time (IST) Temp. Dew Point Humidity Pressure Visibility Wind Dir Wind Speed Gust Speed Precip Events Conditions
12:00 AM 48.2 °F 48.2 °F 100% 29.74 in 6.2 mi SE 2.3 mph - N/A   Partly Cloudy
12:30 AM 48.2 °F 48.2 °F 100% 29.74 in 6.2 mi SE 4.6 mph - N/A   Partly Cloudy
1:00 AM 49 °F 49 °F 100% 29.77 in 12 mi SE 4.5 mph - -   Partly Cloudy
1:00 AM 50.0 °F 50.0 °F 100% 29.74 in 6.2 mi SE 4.6 mph - N/A   Scattered Clouds
1:30 AM 50.0 °F 50.0 °F 100% 29.74 in 6.2 mi SE 4.6 mph - N/A   Scattered Clouds
2:00 AM 51.8 °F 51.8 °F 100% 29.74 in 6.2 mi SE 4.6 mph - N/A   Scattered Clouds
2:30 AM 51.8 °F 51.8 °F 100% 29.74 in 6.2 mi ESE 5.8 mph - N/A   Scattered Clouds
3:00 AM 51.8 °F 51.8 °F 100% 29.74 in 6.2 mi ESE 5.8 mph - N/A   Mostly Cloudy
3:30 AM 53.6 °F 53.6 °F 100% 29.74 in 1.9 mi SE 5.8 mph - N/A   Mostly Cloudy
4:00 AM 53.6 °F 53.6 °F 100% 29.74 in 0.7 mi SE 5.8 mph - N/A   Mostly Cloudy
4:30 AM 53.6 °F 53.6 °F 100% 29.74 in 1.0 mi SE 6.9 mph - N/A Rain Light Rain
5:00 AM 53.6 °F 53.6 °F 100% 29.74 in 0.7 mi ESE 5.8 mph - N/A   Mostly Cloudy
5:30 AM 53.6 °F 53.6 °F 100% 29.74 in 1.9 mi SE 6.9 mph - N/A   Mostly Cloudy
6:00 AM 55.4 °F 55.4 °F 100% 29.74 in 3.7 mi SE 9.2 mph - N/A   Mostly Cloudy
6:30 AM 55.4 °F 55.4 °F 100% 29.71 in 2.8 mi SSE 11.5 mph - N/A   Mostly Cloudy
7:00 AM 55 °F 55 °F 100% 29.74 in 4 mi SSE 8.9 mph - -   Mist
7:00 AM 55.4 °F 55.4 °F 100% 29.74 in 4.3 mi SSE 9.2 mph - N/A   Mostly Cloudy
7:30 AM 55.4 °F 55.4 °F 100% 29.74 in 4.3 mi SE 10.4 mph - N/A   Mostly Cloudy
8:00 AM 55.4 °F 55.4 °F 100% 29.74 in 6.2 mi SE 11.5 mph - N/A   Mostly Cloudy
8:30 AM 55.4 °F 55.4 °F 100% 29.74 in 6.2 mi SE 11.5 mph - N/A   Mostly Cloudy
9:00 AM 55.4 °F 55.4 °F 100% 29.74 in 6.2 mi SE 12.7 mph - N/A   Mostly Cloudy
9:30 AM 55.4 °F 55.4 °F 100% 29.74 in 4.3 mi SE 12.7 mph - N/A   Mostly Cloudy
10:00 AM 55.4 °F 55.4 °F 100% 29.74 in 6.2 mi SE 13.8 mph - N/A   Mostly Cloudy
10:30 AM 55.4 °F 55.4 °F 100% 29.74 in 4.3 mi ESE 13.8 mph - N/A Rain Light Rain
11:00 AM 57.2 °F 57.2 °F 100% 29.71 in 3.7 mi ESE 15.0 mph - N/A Rain Light Rain
11:30 AM 57.2 °F 57.2 °F 100% 29.71 in 3.1 mi ESE 16.1 mph - N/A Rain Light Rain
12:00 PM 57.2 °F 55.4 °F 94% 29.68 in 3.1 mi ESE 16.1 mph - N/A Rain Light Rain
12:30 PM 57.2 °F 57.2 °F 100% 29.68 in 4.3 mi ESE 18.4 mph - N/A Rain Light Rain
1:00 PM 57 °F 57 °F 100% 29.70 in 4 mi SE 20.1 mph - - Rain Light Rain
1:00 PM 57.2 °F 57.2 °F 100% 29.68 in 4.3 mi SE 19.6 mph - N/A Rain Light Rain
1:30 PM 57.2 °F 57.2 °F 100% 29.68 in 4.3 mi SE 19.6 mph - N/A   Mostly Cloudy
2:00 PM 57.2 °F 57.2 °F 100% 29.68 in 6.2 mi SE 17.3 mph - N/A   Mostly Cloudy
2:30 PM 57.2 °F 57.2 °F 100% 29.65 in 3.7 mi ESE 19.6 mph - N/A   Mostly Cloudy
3:00 PM 57.2 °F 55.4 °F 94% 29.65 in 1.2 mi ESE 17.3 mph - N/A Rain Light Rain
3:30 PM 57.2 °F 55.4 °F 94% 29.65 in 0.7 mi ESE 17.3 mph - N/A Rain Light Rain
4:00 PM 55.4 °F 55.4 °F 100% 29.62 in 0.4 mi ESE 19.6 mph - N/A Fog Fog
4:30 PM 55.4 °F 55.4 °F 100% 29.59 in 0.7 mi ESE 18.4 mph - N/A Rain Light Rain
5:00 PM 55.4 °F 55.4 °F 100% 29.59 in 0.6 mi ESE 19.6 mph - N/A Fog Fog
5:30 PM 55.4 °F 55.4 °F 100% 29.59 in 2.5 mi ESE 20.7 mph - N/A   Overcast
6:00 PM 55.4 °F 55.4 °F 100% 29.56 in 2.2 mi ESE 20.7 mph - N/A Rain Light Rain
6:30 PM 55.4 °F 55.4 °F 100% 29.56 in 3.1 mi ESE 23.0 mph - N/A Rain Rain
7:00 PM 56 °F 56 °F 100% 29.56 in 5 mi ESE 20.1 mph - - Rain Rain
7:00 PM 55.4 °F 55.4 °F 100% 29.56 in 5.0 mi ESE 20.7 mph 32.2 mph N/A Rain Rain
7:30 PM 55.4 °F 55.4 °F 100% 29.53 in 5.0 mi ESE 19.6 mph - N/A Rain Rain
8:00 PM 55.4 °F 55.4 °F 100% 29.53 in 2.8 mi ESE 24.2 mph - N/A Rain Rain
8:30 PM 57.2 °F 57.2 °F 100% 29.50 in 2.8 mi ESE 25.3 mph - N/A Rain Light Rain
9:00 PM 57.2 °F 55.4 °F 94% 29.50 in 2.8 mi ESE 23.0 mph - N/A Rain Light Rain
9:30 PM 57.2 °F 55.4 °F 94% 29.47 in 2.8 mi ESE 24.2 mph 35.7 mph N/A Rain Rain
10:00 PM 57.2 °F 55.4 °F 94% 29.47 in 2.2 mi ESE 24.2 mph - N/A Rain Rain
10:30 PM 57.2 °F 57.2 °F 100% 29.44 in 1.9 mi ESE 21.9 mph - N/A Rain Rain
11:00 PM 57.2 °F 57.2 °F 100% 29.44 in 2.5 mi ESE 24.2 mph 35.7 mph N/A Rain Light Rain
11:30 PM 57.2 °F 57.2 °F 100% 29.42 in 2.2 mi ESE 24.2 mph - N/A Rain Light Rain